Location: Risskov
(56.1972°N, 10.2480°E)
Time: 00:35:09
(UTC+00:00)

Cosmos 2221 - Pass Details

Date: 05 July 2020
Orbit: 592 x 616 km, 82.5° (Epoch: 03 August)

Event Time Altitude Azimuth Distance (km) Brightness Sun altitude
Rises 22:28:45 0° 339° (NNW) 2,902 8.1 -10.3°
Reaches altitude 10° 22:31:21 10° 325° (NW) 1,988 6.4 -10.4°
Maximum altitude 22:34:46 22° 274° (W) 1,339 4.5 -10.5°
Drops below altitude 10° 22:38:09 10° 223° (SW) 1,967 4.8 -10.5°
Enters shadow 22:39:20 - 215° (SW) 2,361 5.1 -10.6°
